Regional Weather Roundup
Issued by NWS

Home | Current Version | Previous Version | Graphics & Text | Print | Product List | Glossary On
Versions: 1 2 3 4 5 6 7 8 9 10 11 12 13 14 15 16 17 18 19 20 21 22 23 24 25 26 27 28 29 30 31 32 33 34 35 36 37 38 39 40 41 42 43 44 45 46 47 48 49 50
000
ASUS43 KIND 252309
RWRIN

WEATHER ROUNDUP FOR INDIANA
NATIONAL WEATHER SERVICE INDIANAPOLIS IN
600 PM EST SAT FEB 25 2017

NOTE: "FAIR" INDICATES FEW OR NO CLOUDS BELOW 12,000 FEET WITH NO
SIGNIFICANT WEATHER AND/OR OBSTRUCTIONS TO VISIBILITY.

* - STATION DOES NOT REPORT WEATHER SUCH AS PRECIPITATION OR FOG.

+ - STATION NOT QUALITY CONTROLLED BY THE NATIONAL WEATHER SERVICE.
    USE DATA WITH CAUTION...ESPECIALLY DEWPOINT AND RELATIVE
    HUMIDITY OBSERVATIONS.

INZ001>003-010>013-019-020-260000-
NORTHWEST INDIANA

CITY           SKY/WX    TMP DP  RH WIND       PRES   REMARKS
GARY /AIRPORT/ CLOUDY    28  12  50 W20G32    29.97R WCI  15
KNOX *+        CLOUDY    28   0  29 W13G21    29.95R WCI  18
LA PORTE +     LGT SNOW  25  20  79 NW10      29.94R WCI  15
MICHIGAN CITY+ CLOUDY    28  18  64 W9G21     29.96R WCI  20
MONTICELLO +   CLOUDY    30  17  57 W20       29.96R WCI  17
RENSSELAER +     N/A     30  18  59 W15G22    29.97R WCI  19
VALPARAISO     CLOUDY    28  16  60 W16       29.95R WCI  16

$$

LMZ046-743>745-260000-
SOUTHERN LAKE MICHIGAN

STATION/POSITION TIME  TEMP    WIND        PRES    WAVE
                       AIR SEA DIR/SP/G            HT
                 (UTC) (F)     (DEG/KT/KT) (MB)    (FT)
BURNS HARBOR     2240   28     280/ 20/ 25 1014.6R
MICHIGAN CITY    2240   26     250/ 26/ 29   N/A

$$

INZ004-005-014>016-021>024-260000-
NORTH CENTRAL INDIANA

CITY           SKY/WX    TMP DP  RH WIND       PRES   REMARKS
GOSHEN         FLURRIES  25  17  72 W18       29.92R WCI  11
LOGANSPORT +   CLOUDY    30  19  64 W20G26    29.96R WCI  18
PERU/GRISSOM   CLOUDY    29  18  62 W22       29.93R WCI  16
ROCHESTER +    MOCLDY    32  18  55 W13G22    29.95R WCI  22
SOUTH BEND     CLOUDY    24  16  71 NW14      29.93R WCI  12
WARSAW +       CLOUDY    27  14  59 W20       29.92R WCI  13

$$

INZ006>009-017-018-025>027-260000-
NORTHEAST INDIANA

CITY           SKY/WX    TMP DP  RH WIND       PRES   REMARKS
ANGOLA *+      CLOUDY    25  18  74 W12       29.88R WCI  14
AUBURN +       CLOUDY    28  18  64 W12       29.91R WCI  18
FORT WAYNE     FLURRIES  27  18  69 W23G30    29.92R WCI  12
HUNTINGTON +   CLOUDY    27  17  64 W13G18    29.93R WCI  16
KENDALLVILLE + FLURRIES  26  18  72 W17       29.89R WCI  13

$$

INZ028-029-035-036-043>045-051>053-260000-
WEST CENTRAL INDIANA

CITY           SKY/WX    TMP DP  RH WIND       PRES   REMARKS
LAFAYETTE      CLOUDY    29  19  66 W14G28    29.99R WCI  18
TERRE HAUTE    CLEAR     35  14  42 W18G24    30.03R WCI  24

$$

INZ030>032-037>040-046>048-054>057-064-065-260000-
CENTRAL INDIANA

CITY           SKY/WX    TMP DP  RH WIND       PRES   REMARKS
CP ATTERBURY + CLOUDY    32  18  55 W10G20    30.01S WCI  24
COLUMBUS       MOCLDY    32  18  55 W14G25    30.02R WCI  22
FISHERS *+     CLOUDY    30  21  69 W14G22    29.99R WCI  20
FRANKFORT +    CLOUDY    31  22  67 W22       29.99R WCI  19
GREENWOOD *+   CLOUDY    33  17  53 W17G23    30.00R WCI  21
INDIANAPOLIS   MOCLDY    32  16  51 W18G30    29.99R WCI  20
-EAGLE CREEK   CLOUDY    32  16  51 W21G28    29.98R WCI  20
KOKOMO +       CLOUDY    29  20  69 W21G28    29.96R WCI  16
MARION +       CLOUDY    28  21  76 W22G28    29.96R WCI  13
MT COMFORT *+  CLOUDY    30  18  59 W18       29.98S WCI  18
SHELBYVILLE    CLOUDY    33  16  49 W17       29.99R WCI  22
ZIONSVILLE +   CLOUDY    29  19  65 W15G25    29.98R WCI  18

$$

INZ033-034-041-042-049-050-058-059-260000-
EAST CENTRAL INDIANA

CITY           SKY/WX    TMP DP  RH WIND       PRES   REMARKS
MUNCIE         CLOUDY    29  18  63 W17G32    29.96R WCI  17

$$

INZ060-061-067>069-081>083-085>088-260000-
SOUTHWEST INDIANA

CITY           SKY/WX    TMP DP  RH WIND       PRES   REMARKS
EVANSVILLE     PTCLDY    38  16  40 NW10      30.09R
HUNTINGBURG *+ CLEAR     36  18  48 NW12      30.07R
WASHINGTON +   MOCLDY    35  15  43 W12G17    30.06R WCI  27

$$

INZ062-063-066-070>080-084-089>092-260000-
SOUTH CENTRAL AND SOUTHEAST INDIANA

CITY           SKY/WX    TMP DP  RH WIND       PRES   REMARKS
BEDFORD +      PTCLDY    34  14  44 NW5       30.02R WCI  30
BLOOMINGTON    PTCLDY    33  15  47 W13G20    30.01R WCI  24
MADISON *+     MOCLDY    34  18  51 W12G17    30.03R WCI  25
NORTH VERNON + CLOUDY    34  19  55 W10G20    30.01R WCI  26
SEYMOUR +      PTCLDY    36  18  48 W13       30.03R

$$





USA.gov is the U.S. government's official web portal to all federal, state and local government web resources and services.